Vorticity
4 4 4 3 4 6 5 5 4 8 6 5 7 4 5 8 12 9 -1 -4 5 11 2 6 8 9 29 3 8 14 7 5 6 5 8 8 8 10 5 12 6 9 21 20 14
8 5 4 4 3 4 6 6 5 3 7 6 4 6 4 12 1 -4 -16 -2 14 12 14 8 8 3 7 7 9 7 9 4 1 6 2 2 12 15 13 7 8 12 22 17 14
7 8 6 3 4 3 4 5 6 4 4 6 7 6 7 5 14 19 2 25 16 10 13 10 11 14 10 10 10 6 4 7 16 9 9 6 9 4 5 15 5 29 49 10 13
1 6 8 7 4 4 3 4 4 5 5 6 5 3 6 5 18 -2 5 9 15 -6 -7 -2 12 6 13 3 7 17 7 5 6 17 14 8 6 6 2 6 8 2 13 28 17
2 1 4 8 8 5 4 3 3 4 4 4 4 3 2 4 11 4 12 8 9 0 16 0 6 -0 5 -0 1 8 7 12 8 6 14 13 8 4 9 6 8 6 7 7 11
5 5 1 3 7 8 6 5 4 3 6 3 2 3 4 1 5 11 -7 6 8 15 0 10 -8 -3 11 9 -9 11 -1 3 18 7 13 17 8 10 6 3 8 6 7 7 6
7 4 8 1 3 6 8 7 4 5 3 6 3 5 6 8 -1 8 9 2 5 -10 16 0 5 2 -2 -3 3 1 19 11 7 8 7 14 11 14 11 11 7 7 6 7 8
9 9 4 10 0 3 6 8 7 5 5 4 7 5 3 5 2 1 13 5 -2 8 7 5 2 6 3 -4 -13 -4 1 6 -4 -0 2 5 13 12 10 13 9 4 4 4 5
35 14 9 5 9 0 4 6 8 6 5 6 5 7 12 3 3 2 3 6 4 -2 11 0 -2 3 4 6 5 4 3 -0 -1 -4 12 5 4 17 15 10 16 7 7 7 5
10 29 21 8 6 9 1 4 7 8 7 7 7 8 12 8 4 3 3 3 3 4 -4 -3 14 -5 -6 11 4 1 11 13 -8 -5 7 14 7 8 20 15 8 11 11 8 8
15 19 33 17 6 6 8 1 5 10 11 8 9 7 10 -5 8 6 5 3 6 -0 -4 8 6 1 -4 -1 5 -2 6 2 5 -9 4 -9 2 3 13 29 11 11 10 16 13
12 11 29 40 12 6 8 7 0 7 12 14 14 11 9 7 7 5 4 9 2 0 8 12 -2 1 -2 6 0 1 14 16 15 8 -9 1 1 4 8 18 16 13 11 11 11
5 9 21 36 30 11 7 10 3 -0 10 18 15 15 10 5 5 7 11 7 8 0 1 -18 11 5 -1 4 6 1 -0 -8 -10 20 5 11 3 3 0 -3 10 16 18 8 9
8 7 14 23 40 22 8 11 11 0 4 13 11 19 21 14 9 12 12 8 10 9 -3 3 4 23 -6 -3 6 5 -4 3 -1 6 4 2 3 4 11 8 -2 14 23 15 13
14 4 9 30 25 25 14 9 16 3 2 2 9 7 13 21 4 12 26 12 18 14 4 14 1 15 -4 -10 16 -8 1 -4 6 4 1 13 18 12 18 13 -1 13 9 11 17
7 11 4 9 31 21 20 9 15 10 4 5 -1 5 8 11 15 -11 6 18 11 10 8 11 4 -1 16 -7 2 -8 -5 11 -2 3 36 -0 -5 5 7 8 5 9 13 10 13
1 7 11 4 14 22 24 18 5 20 3 9 1 -2 2 5 6 12 22 13 8 20 19 14 11 -2 3 5 -2 -0 4 8 3 -1 -11 0 11 -1 5 1 3 11 -1 9 12
6 2 5 9 5 16 17 20 11 5 26 4 6 5 5 3 2 -1 -4 28 22 17 14 14 21 17 -3 6 2 5 2 -1 12 13 9 1 4 -1 1 19 14 3 12 2 12
10 6 1 8 10 7 15 12 19 8 2 25 3 2 4 4 2 8 3 -10 1 -1 8 8 15 15 17 -0 12 -0 4 -1 9 8 10 3 3 8 12 1 1 -3 -2 -4 26
7 11 4 7 6 8 8 13 11 12 9 2 16 5 7 8 8 9 0 -5 1 6 4 6 11 8 13 15 7 7 -7 12 13 21 6 -1 12 -11 3 -15 11 15 9 -1 -7
6 14 13 9 8 9 12 7 9 16 20 17 7 11 5 2 3 6 0 8 3 2 -3 5 13 16 17 13 17 9 8 -3 3 8 16 -2 21 -3 11 11 -2 0 7 5 -0
12 12 13 12 10 7 9 15 6 5 9 14 14 19 18 4 6 9 -2 0 5 8 3 5 4 5 18 -4 13 15 6 -3 6 7 6 7 -2 -1 8 5 5 -5 1 -1 14
10 9 12 13 10 11 11 8 8 10 7 5 6 8 11 23 25 9 -3 -2 4 7 2 -1 2 4 3 3 14 -7 -2 7 -0 9 3 12 3 1 -7 6 2 15 3 2 10
10 10 9 10 10 12 11 11 9 7 7 11 10 8 8 8 8 17 18 15 18 3 12 2 2 4 3 2 10 32 7 -1 5 0 14 5 9 4 -4 4 6 -2 10 2 3
13 9 8 7 7 7 11 12 13 11 10 7 3 5 11 12 14 14 16 16 11 10 14 7 -4 0 2 6 -0 7 26 8 -1 3 5 5 10 20 -6 -4 -2 13 0 -4 2
18 18 14 12 10 7 6 7 13 15 14 8 13 12 6 9 7 9 12 17 14 13 22 14 4 21 5 -1 -0 8 12 21 16 1 3 1 5 6 5 9 1 -14 6 6 -5
9 12 16 15 14 12 8 6 5 8 12 15 15 17 10 7 8 2 4 3 8 12 13 16 15 9 29 3 -3 -3 0 -1 15 29 -0 5 2 -2 7 9 14 -6 5 -0 13
Height
5926 5925 5925 5924 5924 5924 5922 5922 5921 5921 5922 5921 5921 5920 5920 5920 5919 5919 5918 5918 5914 5912 5912 5910 5911 5909 5909 5911 5911 5910 5910 5909 5910 5910 5912 5911 5910 5908 5907 5906 5904 5902 5898 5898 5899
5927 5926 5926 5926 5925 5925 5924 5923 5923 5923 5924 5924 5924 5924 5924 5922 5923 5923 5923 5922 5920 5917 5915 5913 5913 5915 5915 5915 5914 5913 5911 5911 5911 5912 5915 5914 5912 5910 5909 5906 5905 5902 5898 5899 5902
5927 5926 5926 5926 5926 5926 5926 5924 5924 5925 5925 5925 5926 5927 5927 5925 5924 5924 5926 5926 5925 5921 5919 5918 5919 5920 5920 5920 5918 5916 5915 5914 5914 5914 5914 5914 5913 5912 5910 5908 5908 5901 5900 5903 5904
5928 5926 5925 5926 5926 5926 5927 5926 5924 5925 5926 5927 5927 5928 5928 5927 5927 5927 5927 5928 5928 5926 5926 5925 5923 5923 5924 5924 5924 5921 5918 5917 5916 5917 5919 5917 5916 5914 5913 5912 5910 5908 5907 5908 5909
5926 5926 5925 5924 5925 5926 5926 5926 5925 5924 5926 5928 5929 5929 5930 5930 5929 5930 5929 5929 5930 5931 5929 5928 5926 5927 5926 5925 5925 5923 5921 5919 5919 5919 5920 5920 5919 5918 5916 5914 5914 5914 5912 5911 5913
5924 5924 5923 5923 5922 5924 5925 5926 5926 5925 5925 5926 5929 5930 5932 5932 5932 5932 5931 5929 5931 5932 5929 5929 5926 5930 5929 5929 5928 5927 5925 5926 5924 5922 5921 5921 5920 5920 5918 5917 5917 5917 5917 5917 5917
5920 5921 5921 5921 5920 5920 5922 5924 5925 5925 5925 5927 5928 5930 5931 5934 5933 5933 5933 5932 5932 5932 5933 5928 5930 5932 5931 5931 5930 5927 5932 5930 5928 5925 5923 5924 5924 5922 5921 5920 5920 5919 5919 5919 5920
5915 5916 5917 5918 5918 5917 5918 5920 5923 5923 5924 5926 5928 5929 5931 5932 5933 5934 5935 5933 5931 5933 5934 5935 5936 5933 5932 5932 5933 5932 5933 5934 5933 5932 5930 5928 5927 5925 5922 5922 5922 5921 5920 5919 5921
5910 5910 5911 5912 5914 5914 5914 5916 5919 5921 5922 5925 5927 5929 5931 5931 5932 5932 5933 5934 5933 5933 5937 5939 5939 5935 5935 5934 5935 5934 5935 5936 5936 5935 5935 5931 5928 5927 5925 5923 5923 5921 5921 5922 5923
5907 5904 5904 5906 5907 5909 5910 5912 5914 5917 5919 5922 5924 5927 5930 5928 5928 5929 5929 5931 5930 5933 5934 5938 5940 5937 5933 5934 5934 5934 5935 5936 5936 5936 5935 5934 5930 5927 5928 5925 5923 5922 5923 5924 5925
5904 5900 5898 5899 5900 5904 5907 5909 5913 5916 5918 5920 5922 5924 5925 5923 5926 5929 5928 5927 5927 5929 5933 5934 5937 5934 5932 5934 5934 5933 5935 5935 5935 5936 5936 5935 5933 5931 5930 5929 5927 5925 5925 5926 5925
5901 5897 5893 5893 5894 5898 5902 5906 5909 5913 5914 5914 5917 5920 5919 5919 5923 5925 5927 5929 5929 5928 5928 5933 5934 5933 5930 5932 5933 5933 5935 5937 5936 5935 5935 5935 5934 5934 5933 5932 5930 5929 5927 5926 5926
5898 5894 5890 5888 5888 5894 5898 5900 5905 5909 5909 5910 5913 5914 5913 5911 5918 5921 5923 5925 5925 5927 5927 5928 5929 5930 5932 5931 5933 5934 5934 5933 5933 5936 5934 5935 5933 5934 5934 5934 5932 5930 5928 5926 5924
5897 5893 5889 5885 5886 5890 5893 5896 5902 5906 5907 5907 5907 5908 5909 5909 5915 5916 5918 5920 5920 5924 5924 5926 5926 5929 5930 5928 5930 5932 5932 5931 5930 5934 5934 5935 5934 5933 5933 5934 5933 5931 5929 5926 5925
5895 5892 5889 5884 5884 5886 5889 5893 5897 5902 5903 5904 5903 5902 5903 5907 5909 5911 5912 5913 5918 5921 5921 5928 5924 5926 5926 5928 5929 5931 5931 5930 5930 5932 5933 5933 5933 5933 5933 5934 5934 5933 5932 5930 5927
5895 5892 5889 5886 5883 5884 5887 5891 5894 5898 5898 5900 5901 5901 5901 5901 5903 5905 5907 5910 5914 5914 5915 5921 5921 5922 5927 5925 5928 5931 5931 5929 5930 5929 5932 5933 5932 5933 5934 5935 5935 5932 5933 5932 5929
5894 5891 5889 5887 5885 5884 5885 5888 5892 5891 5895 5897 5899 5899 5899 5899 5899 5900 5902 5904 5907 5910 5913 5917 5917 5919 5923 5924 5926 5927 5927 5927 5928 5928 5930 5930 5930 5932 5932 5933 5935 5933 5932 5932 5930
5892 5890 5888 5886 5885 5884 5884 5886 5888 5888 5890 5891 5893 5895 5896 5898 5898 5897 5898 5899 5901 5901 5902 5904 5909 5916 5920 5921 5924 5923 5925 5924 5923 5925 5926 5926 5927 5930 5930 5932 5932 5934 5934 5933 5931
5889 5888 5887 5885 5884 5883 5882 5882 5884 5885 5885 5885 5887 5888 5891 5894 5897 5897 5897 5896 5893 5894 5895 5896 5900 5902 5904 5913 5917 5920 5920 5923 5920 5920 5920 5923 5925 5928 5930 5932 5934 5934 5935 5935 5932
5887 5885 5884 5883 5881 5881 5881 5880 5878 5875 5877 5880 5881 5882 5883 5886 5891 5893 5892 5893 5891 5891 5891 5893 5897 5897 5900 5901 5905 5909 5915 5915 5915 5915 5914 5917 5921 5925 5927 5926 5929 5932 5934 5935 5934
5883 5882 5880 5878 5878 5878 5877 5876 5875 5876 5876 5876 5877 5879 5879 5881 5884 5887 5887 5887 5886 5888 5886 5889 5892 5896 5895 5895 5899 5902 5904 5908 5908 5909 5908 5910 5913 5921 5923 5924 5925 5928 5931 5932 5932
5881 5880 5877 5874 5874 5872 5871 5871 5871 5869 5870 5869 5870 5872 5874 5875 5877 5878 5878 5878 5881 5883 5881 5882 5883 5890 5892 5893 5894 5896 5900 5900 5899 5902 5903 5903 5907 5916 5919 5921 5922 5923 5924 5927 5929
5876 5874 5873 5871 5869 5868 5866 5865 5865 5865 5862 5864 5863 5866 5868 5869 5870 5869 5869 5870 5872 5875 5876 5876 5875 5876 5885 5890 5889 5889 5890 5891 5893 5895 5895 5896 5901 5911 5911 5914 5917 5919 5920 5920 5924
5871 5869 5867 5865 5863 5862 5860 5858 5857 5858 5857 5857 5855 5855 5858 5859 5859 5859 5860 5861 5863 5864 5866 5867 5867 5867 5871 5877 5879 5882 5885 5886 5888 5889 5890 5893 5894 5905 5906 5907 5908 5913 5915 5914 5919
5865 5861 5859 5858 5857 5854 5853 5852 5851 5849 5846 5847 5845 5845 5845 5846 5846 5845 5849 5851 5852 5853 5854 5856 5857 5857 5857 5862 5867 5873 5879 5881 5881 5884 5884 5889 5889 5898 5901 5902 5903 5906 5907 5909 5913
5860 5857 5853 5851 5847 5844 5842 5843 5843 5841 5838 5834 5834 5834 5832 5831 5831 5832 5833 5837 5839 5841 5842 5841 5843 5845 5845 5848 5854 5859 5866 5873 5874 5877 5879 5880 5883 5890 5893 5894 5896 5896 5900 5901 5905
5854 5851 5847 5843 5839 5836 5835 5832 5829 5827 5827 5825 5823 5820 5819 5818 5818 5821 5821 5825 5826 5828 5829 5829 5828 5831 5833 5837 5841 5846 5856 5860 5862 5867 5870 5873 5879 5883 5885 5887 5888 5888 5887 5892 5896